When you browse on this site, cookies collect data to enhance your experience and personalize the content and advertising you see.
Visit our Privacy Policy to learn more. By continuing to use the site, you agree to this use of cookies and data.
  • In Lithuania
  • List of Countries
  • For 7 days
  • Water Temperature
  • Satellite Maps
  • Weather Map
  • Weather Widgets
  • user-avatar
    Login

    Hourly Weather Duchan

    Today, 22 May, Wednesday

    Time Temperature Precipitation Wind Pressure Humidity
    00:00 +36°C° 0 mm 2 mps 754 mmHg 37%
    01:00 +35°C° 0 mm 3 mps 754 mmHg 38%
    02:00 +35°C° 0 mm 3 mps 754 mmHg 39%
    03:00 +34°C° 0 mm 3 mps 754 mmHg 41%
    04:00 +34°C° 0 mm 3 mps 754 mmHg 41%
    05:00 +34°C° 0 mm 3 mps 754 mmHg 41%
    06:00 +34°C° 0 mm 3 mps 754 mmHg 41%
    07:00 +36°C° 0 mm 3 mps 754 mmHg 38%
    08:00 +37°C° 0 mm 3 mps 755 mmHg 34%
    09:00 +39°C° 0 mm 3 mps 755 mmHg 30%
    10:00 +40°C° 0 mm 3 mps 754 mmHg 27%
    11:00 +40°C° 0 mm 3 mps 754 mmHg 23%
    12:00 +41°C° 0 mm 2 mps 754 mmHg 20%
    13:00 +43°C° 0 mm 3 mps 754 mmHg 19%
    14:00 +43°C° 0 mm 3 mps 753 mmHg 18%
    15:00 +43°C° 0 mm 3 mps 753 mmHg 16%
    16:00 +42°C° 0 mm 4 mps 753 mmHg 20%
    17:00 +40°C° 0 mm 5 mps 753 mmHg 24%
    18:00 +39°C° 0 mm 7 mps 753 mmHg 27%
    19:00 +38°C° 0 mm 6 mps 753 mmHg 29%
    20:00 +36°C° 0 mm 5 mps 753 mmHg 30%
    21:00 +36°C° 0 mm 5 mps 754 mmHg 31%
    22:00 +35°C° 0 mm 3 mps 753 mmHg 32%
    23:00 +34°C° 0 mm 2 mps 753 mmHg 34%

    Tomorrow, 23 May, Thursday

    Time Temperature Precipitation Wind Pressure Humidity
    00:00 +33°C° 0 mm 1 mps 753 mmHg 35%
    01:00 +33°C° 0 mm 1 mps 753 mmHg 33%
    02:00 +34°C° 0 mm 2 mps 753 mmHg 31%
    03:00 +33°C° 0 mm 3 mps 753 mmHg 30%
    04:00 +34°C° 0 mm 3 mps 753 mmHg 29%
    05:00 +34°C° 0 mm 4 mps 753 mmHg 28%
    06:00 +34°C° 0 mm 4 mps 753 mmHg 28%
    07:00 +36°C° 0 mm 4 mps 753 mmHg 24%
    08:00 +38°C° 0 mm 4 mps 753 mmHg 20%
    09:00 +41°C° 0 mm 4 mps 753 mmHg 16%
    10:00 +42°C° 0 mm 4 mps 753 mmHg 14%
    11:00 +42°C° 0 mm 3 mps 753 mmHg 13%
    12:00 +43°C° 0 mm 3 mps 753 mmHg 11%
    13:00 +44°C° 0 mm 3 mps 752 mmHg 11%
    14:00 +44°C° 0 mm 3 mps 752 mmHg 11%
    15:00 +44°C° 0 mm 3 mps 751 mmHg 10%
    16:00 +43°C° 0 mm 4 mps 751 mmHg 13%
    17:00 +41°C° 0 mm 5 mps 751 mmHg 16%
    18:00 +40°C° 0 mm 6 mps 751 mmHg 19%
    19:00 +39°C° 0 mm 5 mps 752 mmHg 21%
    20:00 +37°C° 0 mm 4 mps 752 mmHg 23%
    21:00 +36°C° 0 mm 3 mps 752 mmHg 25%
    22:00 +36°C° 0 mm 2 mps 752 mmHg 26%
    23:00 +34°C° 0 mm 1 mps 752 mmHg 27%

    Day after tomorrow, 24 May, Friday

    Time Temperature Precipitation Wind Pressure Humidity
    00:00 +33°C° 0 mm 1 mps 752 mmHg 28%
    01:00 +33°C° 0 mm 1 mps 752 mmHg 27%
    02:00 +34°C° 0 mm 2 mps 752 mmHg 26%
    03:00 +34°C° 0 mm 3 mps 752 mmHg 26%
    04:00 +34°C° 0 mm 3 mps 752 mmHg 26%
    05:00 +34°C° 0 mm 3 mps 752 mmHg 25%
    06:00 +35°C° 0 mm 3 mps 752 mmHg 25%
    07:00 +36°C° 0 mm 3 mps 753 mmHg 23%
    08:00 +38°C° 0 mm 3 mps 753 mmHg 20%
    09:00 +39°C° 0 mm 3 mps 753 mmHg 17%
    10:00 +40°C° 0 mm 2 mps 753 mmHg 16%
    11:00 +41°C° 0 mm 2 mps 753 mmHg 15%
    12:00 +42°C° 0 mm 2 mps 753 mmHg 13%
    13:00 +44°C° 0 mm 3 mps 752 mmHg 12%
    14:00 +44°C° 0 mm 3 mps 752 mmHg 11%
    15:00 +44°C° 0 mm 4 mps 751 mmHg 10%
    16:00 +43°C° 0 mm 4 mps 751 mmHg 13%
    17:00 +42°C° 0 mm 4 mps 751 mmHg 15%
    18:00 +41°C° 0 mm 4 mps 751 mmHg 17%
    19:00 +40°C° 0 mm 4 mps 752 mmHg 20%
    20:00 +38°C° 0 mm 4 mps 752 mmHg 23%
    21:00 +37°C° 0 mm 3 mps 753 mmHg 26%
    22:00 +36°C° 0 mm 3 mps 753 mmHg 27%
    23:00 +35°C° 0 mm 3 mps 752 mmHg 27%

    25 May, Saturday

    Time Temperature Precipitation Wind Pressure Humidity
    00:00 +35°C° 0 mm 3 mps 752 mmHg 28%
    01:00 +34°C° 0 mm 2 mps 752 mmHg 29%
    02:00 +34°C° 0 mm 2 mps 752 mmHg 30%
    03:00 +32°C° 0 mm 2 mps 751 mmHg 31%
    04:00 +32°C° 0 mm 1 mps 752 mmHg 31%
    05:00 +32°C° 0 mm 1 mps 752 mmHg 30%
    06:00 +33°C° 0 mm 1 mps 752 mmHg 30%
    07:00 +34°C° 0 mm 1 mps 753 mmHg 27%
    08:00 +35°C° 0 mm 1 mps 753 mmHg 24%
    09:00 +37°C° 0 mm 1 mps 754 mmHg 21%
    10:00 +39°C° 0 mm 1 mps 753 mmHg 19%
    11:00 +40°C° 0 mm 1 mps 753 mmHg 16%
    12:00 +38°C° 0 mm 0 mps 753 mmHg 13%
    13:00 +42°C° 0 mm 1 mps 752 mmHg 13%
    14:00 +42°C° 0 mm 2 mps 751 mmHg 12%
    15:00 +43°C° 0 mm 2 mps 751 mmHg 11%
    16:00 +43°C° 0 mm 3 mps 751 mmHg 12%
    17:00 +42°C° 0 mm 3 mps 751 mmHg 13%
    18:00 +42°C° 0 mm 3 mps 751 mmHg 14%
    19:00 +40°C° 0 mm 4 mps 751 mmHg 16%
    20:00 +38°C° 0 mm 4 mps 752 mmHg 17%
    21:00 +37°C° 0 mm 4 mps 752 mmHg 19%
    22:00 +36°C° 0 mm 3 mps 752 mmHg 19%
    23:00 +36°C° 0 mm 3 mps 752 mmHg 20%

    26 May, Sunday

    Time Temperature Precipitation Wind Pressure Humidity
    00:00 +35°C° 0 mm 2 mps 751 mmHg 20%
    01:00 +35°C° 0 mm 2 mps 751 mmHg 21%
    02:00 +34°C° 0 mm 2 mps 751 mmHg 21%
    03:00 +34°C° 0 mm 2 mps 751 mmHg 22%
    04:00 +34°C° 0 mm 2 mps 751 mmHg 22%
    05:00 +34°C° 0 mm 2 mps 751 mmHg 22%
    06:00 +33°C° 0 mm 1 mps 751 mmHg 22%
    07:00 +34°C° 0 mm 1 mps 752 mmHg 21%
    08:00 +36°C° 0 mm 1 mps 752 mmHg 19%
    09:00 +37°C° 0 mm 1 mps 752 mmHg 17%
    10:00 +39°C° 0 mm 1 mps 752 mmHg 16%
    11:00 +40°C° 0 mm 1 mps 752 mmHg 15%
    12:00 +42°C° 0 mm 2 mps 751 mmHg 13%
    13:00 +42°C° 0 mm 2 mps 751 mmHg 13%
    14:00 +43°C° 0 mm 3 mps 751 mmHg 13%
    15:00 +44°C° 0 mm 4 mps 750 mmHg 13%
    16:00 +43°C° 0 mm 4 mps 750 mmHg 14%
    17:00 +42°C° 0 mm 4 mps 750 mmHg 15%
    18:00 +41°C° 0 mm 4 mps 751 mmHg 16%
    19:00 +39°C° 0 mm 3 mps 751 mmHg 17%
    20:00 +38°C° 0 mm 3 mps 751 mmHg 18%
    21:00 +37°C° 0 mm 2 mps 751 mmHg 19%
    22:00 +37°C° 0 mm 2 mps 751 mmHg 19%
    23:00 +36°C° 0 mm 2 mps 751 mmHg 20%

    27 May, Monday

    Time Temperature Precipitation Wind Pressure Humidity
    00:00 +36°C° 0 mm 2 mps 750 mmHg 20%
    01:00 +35°C° 0 mm 2 mps 750 mmHg 21%
    02:00 +34°C° 0 mm 2 mps 750 mmHg 21%
    03:00 +34°C° 0 mm 2 mps 750 mmHg 22%
    04:00 +33°C° 0 mm 1 mps 750 mmHg 23%
    05:00 +33°C° 0 mm 1 mps 750 mmHg 24%
    06:00 +33°C° 0 mm 1 mps 751 mmHg 26%
    07:00 +34°C° 0 mm 1 mps 751 mmHg 23%
    08:00 +36°C° 0 mm 1 mps 751 mmHg 20%
    09:00 +35°C° 0 mm 0 mps 752 mmHg 17%
    10:00 +40°C° 0 mm 1 mps 751 mmHg 16%
    11:00 +41°C° 0 mm 1 mps 751 mmHg 15%
    12:00 +42°C° 0 mm 2 mps 751 mmHg 14%
    13:00 +43°C° 0 mm 3 mps 750 mmHg 14%
    14:00 +43°C° 0 mm 4 mps 750 mmHg 14%
    15:00 +43°C° 0 mm 4 mps 750 mmHg 14%
    16:00 +43°C° 0 mm 4 mps 750 mmHg 16%
    17:00 +42°C° 0 mm 4 mps 750 mmHg 18%
    18:00 +41°C° 0 mm 4 mps 750 mmHg 20%
    19:00 +40°C° 0 mm 4 mps 750 mmHg 22%
    20:00 +38°C° 0 mm 3 mps 751 mmHg 24%
    21:00 +37°C° 0 mm 3 mps 751 mmHg 27%
    22:00 +37°C° 0 mm 2 mps 750 mmHg 28%
    23:00 +35°C° 0 mm 1 mps 750 mmHg 28%
    Show more